| time (UTC) | temp F | wind direction | speed MPH | gust MPH | rain 1hr in | rain 24hr in | rain mn in | humidity % | barometer mb |
| 20260505053104 | 60 | 13 | 8.0 | 15.0 | 0.00 | 0.00 | 0.00 | 55 | 1005.3 |
| 20260505052548 | 60 | 35 | 7.0 | 17.0 | 0.00 | 0.00 | 0.00 | 55 | 1005.0 |
| 20260505052051 | 61 | 37 | 7.0 | 17.0 | 0.00 | 0.00 | 0.00 | 55 | 1005.0 |
| 20260505051554 | 61 | 20 | 7.0 | 19.0 | 0.00 | 0.00 | 0.00 | 54 | 1004.8 |
| 20260505051051 | 62 | 43 | 9.0 | 19.0 | 0.00 | 0.00 | 0.00 | 53 | 1004.6 |
| 20260505050547 | 62 | 64 | 8.0 | 15.0 | 0.00 | 0.00 | 0.00 | 53 | 1004.3 |
| 20260505041554 | 61 | 39 | 1.0 | 4.0 | 0.00 | 0.00 | 0.00 | 58 | 1003.0 |
| 20260505041048 | 62 | 0 | 0.0 | 4.0 | 0.00 | 0.00 | 0.00 | 57 | 1002.9 |
| 20260505040547 | 62 | 0 | 1.0 | 4.0 | 0.00 | 0.00 | 0.00 | 56 | 1002.9 |
| 20260505040105 | 63 | 78 | 1.0 | 4.0 | 0.00 | 0.00 | 0.00 | 55 | 1002.8 |
| 20260505035547 | 64 | 58 | 0.0 | 7.0 | 0.00 | 0.00 | 0.00 | 53 | 1002.8 |
| 20260505035047 | 64 | 180 | 1.0 | 7.0 | 0.00 | 0.00 | 0.00 | 54 | 1002.8 |
| 20260505034550 | 64 | 101 | 3.0 | 7.0 | 0.00 | 0.00 | 0.00 | 53 | 1002.7 |
| 20260505034047 | 65 | 72 | 1.0 | 8.0 | 0.00 | 0.00 | 0.00 | 51 | 1002.6 |
| 20260505033547 | 65 | 115 | 3.0 | 8.0 | 0.00 | 0.00 | 0.00 | 52 | 1002.5 |
| 20260505033054 | 64 | 56 | 3.0 | 7.0 | 0.00 | 0.00 | 0.00 | 51 | 1002.5 |
| 20260505032547 | 65 | 86 | 1.0 | 6.0 | 0.00 | 0.00 | 0.00 | 51 | 1002.6 |
| 20260505032046 | 65 | 25 | 1.0 | 12.0 | 0.00 | 0.00 | 0.00 | 49 | 1002.7 |
| 20260505031552 | 65 | 95 | 6.0 | 12.0 | 0.00 | 0.00 | 0.00 | 50 | 1002.7 |
| 20260505031046 | 65 | 89 | 1.0 | 9.0 | 0.00 | 0.00 | 0.00 | 49 | 1002.6 |
| 20260505030548 | 66 | 51 | 3.0 | 9.0 | 0.00 | 0.00 | 0.00 | 48 | 1002.5 |
| 20260505030053 | 66 | 98 | 6.0 | 9.0 | 0.00 | 0.00 | 0.00 | 48 | 1002.4 |
| 20260505025547 | 66 | 94 | 6.0 | 9.0 | 0.00 | 0.00 | 0.00 | 48 | 1002.3 |
| 20260505025049 | 66 | 110 | 7.0 | 9.0 | 0.00 | 0.00 | 0.00 | 48 | 1002.2 |
| 20260505024555 | 66 | 114 | 7.0 | 10.0 | 0.00 | 0.00 | 0.00 | 48 | 1002.1 |
| 20260505024047 | 66 | 118 | 6.0 | 10.0 | 0.00 | 0.00 | 0.00 | 47 | 1002.2 |
| 20260505023546 | 66 | 101 | 7.0 | 10.0 | 0.00 | 0.00 | 0.00 | 47 | 1002.1 |
| 20260505023057 | 66 | 100 | 6.0 | 9.0 | 0.00 | 0.00 | 0.00 | 47 | 1002.1 |
| 20260505022548 | 66 | 126 | 5.0 | 8.0 | 0.00 | 0.00 | 0.00 | 46 | 1002.2 |
| 20260505022048 | 66 | 97 | 5.0 | 8.0 | 0.00 | 0.00 | 0.00 | 45 | 1002.2 |
| 20260505021552 | 67 | 97 | 6.0 | 9.0 | 0.00 | 0.00 | 0.00 | 43 | 1002.1 |
| 20260505021047 | 68 | 105 | 6.0 | 9.0 | 0.00 | 0.00 | 0.00 | 42 | 1001.9 |
| 20260505020547 | 69 | 106 | 6.0 | 11.0 | 0.00 | 0.00 | 0.00 | 41 | 1002.0 |
| 20260505020055 | 69 | 85 | 6.0 | 13.0 | 0.00 | 0.00 | 0.00 | 40 | 1002.0 |
| 20260505015548 | 70 | 86 | 9.0 | 13.0 | 0.00 | 0.00 | 0.00 | 40 | 1002.1 |
| 20260505015047 | 70 | 108 | 9.0 | 13.0 | 0.00 | 0.00 | 0.00 | 40 | 1002.1 |
| 20260505014550 | 70 | 124 | 8.0 | 11.0 | 0.00 | 0.00 | 0.00 | 39 | 1002.1 |
| 20260505014048 | 70 | 92 | 5.0 | 8.0 | 0.00 | 0.00 | 0.00 | 38 | 1001.9 |
| 20260505013546 | 71 | 102 | 5.0 | 8.0 | 0.00 | 0.00 | 0.00 | 37 | 1001.8 |
| 20260505013054 | 72 | 80 | 2.0 | 6.0 | 0.00 | 0.00 | 0.00 | 36 | 1001.6 |
| 20260505012547 | 73 | 82 | 1.0 | 6.0 | 0.00 | 0.00 | 0.00 | 34 | 1001.6 |
| 20260505012051 | 74 | 79 | 1.0 | 9.0 | 0.00 | 0.00 | 0.00 | 33 | 1001.4 |
| 20260505011554 | 74 | 51 | 5.0 | 9.0 | 0.00 | 0.00 | 0.00 | 33 | 1001.5 |
| 20260505011050 | 74 | 73 | 5.0 | 9.0 | 0.00 | 0.00 | 0.00 | 32 | 1001.3 |
| 20260505010546 | 75 | 92 | 2.0 | 6.0 | 0.00 | 0.00 | 0.00 | 32 | 1001.5 |
| 20260505010100 | 75 | 0 | 1.0 | 8.0 | 0.00 | 0.00 | 0.00 | 31 | 1001.3 |
| 20260505005545 | 76 | 0 | 2.0 | 13.0 | 0.00 | 0.00 | 0.00 | 32 | 1001.1 |
| 20260505005045 | 76 | 89 | 5.0 | 14.0 | 0.00 | 0.00 | 0.00 | 31 | 1001.0 |
| 20260505004552 | 77 | 70 | 7.0 | 14.0 | 0.00 | 0.00 | 0.00 | 30 | 1001.1 |
| 20260505004046 | 78 | 79 | 8.0 | 13.0 | 0.00 | 0.00 | 0.00 | 28 | 1001.2 |
| 20260505003546 | 79 | 75 | 3.0 | 10.0 | 0.00 | 0.00 | 0.00 | 26 | 1001.2 |
| 20260505003050 | 79 | 114 | 3.0 | 15.0 | 0.00 | 0.00 | 0.00 | 25 | 1001.2 |
| 20260505002548 | 79 | 51 | 5.0 | 15.0 | 0.00 | 0.00 | 0.00 | 26 | 1001.3 |
| 20260505002048 | 78 | 47 | 5.0 | 9.0 | 0.00 | 0.00 | 0.00 | 27 | 1001.3 |
| 20260505001553 | 79 | 12 | 4.0 | 8.0 | 0.00 | 0.00 | 0.00 | 27 | 1001.7 |
| 20260505001046 | 79 | 100 | 0.0 | 6.0 | 0.00 | 0.00 | 0.00 | 27 | 1001.7 |
| 20260505000546 | 80 | 57 | 1.0 | 7.0 | 0.00 | 0.00 | 0.00 | 26 | 1001.7 |
| 20260505000105 | 80 | 56 | 0.0 | 7.0 | 0.00 | 0.00 | 0.00 | 25 | 1001.9 |
| 20260504235546 | 80 | 107 | 0.0 | 4.0 | 0.00 | 0.00 | 0.00 | 25 | 1001.6 |
| 20260504235047 | 80 | 68 | 0.0 | 5.0 | 0.00 | 0.00 | 0.00 | 25 | 1001.4 |
| 20260504234553 | 80 | 0 | 1.0 | 9.0 | 0.00 | 0.00 | 0.00 | 25 | 1001.6 |
| 20260504234048 | 80 | 71 | 3.0 | 9.0 | 0.00 | 0.00 | 0.00 | 25 | 1001.5 |
| 20260504233547 | 80 | 91 | 3.0 | 9.0 | 0.00 | 0.00 | 0.00 | 25 | 1001.6 |
| 20260504233054 | 80 | 0 | 0.0 | 4.0 | 0.00 | 0.00 | 0.00 | 24 | 1001.6 |
| 20260504232546 | 81 | 0 | 1.0 | 4.0 | 0.00 | 0.00 | 0.00 | 24 | 1001.5 |
| 20260504232046 | 81 | 0 | 0.0 | 5.0 | 0.00 | 0.00 | 0.00 | 24 | 1001.6 |
| 20260504231552 | 81 | 25 | 0.0 | 18.0 | 0.00 | 0.00 | 0.00 | 23 | 1001.6 |
| 20260504231048 | 81 | 134 | 8.0 | 18.0 | 0.00 | 0.00 | 0.00 | 23 | 1001.9 |
| 20260504230551 | 80 | 139 | 5.0 | 14.0 | 0.00 | 0.00 | 0.00 | 23 | 1002.0 |
| 20260504230050 | 81 | 159 | 7.0 | 12.0 | 0.00 | 0.00 | 0.00 | 23 | 1002.1 |
| 20260504225548 | 81 | 160 | 4.0 | 8.0 | 0.00 | 0.00 | 0.00 | 24 | 1002.1 |
| 20260504225050 | 81 | 251 | 2.0 | 6.0 | 0.00 | 0.00 | 0.00 | 25 | 1002.4 |
| 20260504224550 | 81 | 0 | 0.0 | 6.0 | 0.00 | 0.00 | 0.00 | 25 | 1002.1 |
| 20260504224050 | 81 | 70 | 0.0 | 3.0 | 0.00 | 0.00 | 0.00 | 25 | 1001.9 |
| 20260504223548 | 81 | 57 | 0.0 | 9.0 | 0.00 | 0.00 | 0.00 | 25 | 1001.9 |
| 20260504223057 | 81 | 48 | 1.0 | 16.0 | 0.00 | 0.00 | 0.00 | 25 | 1001.8 |
| 20260504222549 | 82 | 82 | 5.0 | 16.0 | 0.00 | 0.00 | 0.00 | 24 | 1001.7 |
| 20260504222048 | 82 | 62 | 4.0 | 10.0 | 0.00 | 0.00 | 0.00 | 24 | 1001.7 |
| 20260504221554 | 82 | 65 | 6.0 | 10.0 | 0.00 | 0.00 | 0.00 | 23 | 1001.9 |
| 20260504221045 | 82 | 85 | 6.0 | 9.0 | 0.00 | 0.00 | 0.00 | 23 | 1001.8 |
| 20260504220548 | 82 | 80 | 0.0 | 10.0 | 0.00 | 0.00 | 0.00 | 23 | 1001.8 |
| 20260504220111 | 82 | 98 | 4.0 | 10.0 | 0.00 | 0.00 | 0.00 | 23 | 1001.9 |
| 20260504215549 | 82 | 96 | 4.0 | 12.0 | 0.00 | 0.00 | 0.00 | 23 | 1002.0 |
| 20260504215049 | 82 | 0 | 1.0 | 12.0 | 0.00 | 0.00 | 0.00 | 24 | 1002.1 |
| 20260504214558 | 82 | 0 | 7.0 | 12.0 | 0.00 | 0.00 | 0.00 | 23 | 1002.2 |
| 20260504214048 | 82 | 82 | 2.0 | 12.0 | 0.00 | 0.00 | 0.00 | 23 | 1002.1 |
| 20260504213548 | 83 | 80 | 3.0 | 12.0 | 0.00 | 0.00 | 0.00 | 22 | 1002.2 |
| 20260504213059 | 83 | 41 | 6.0 | 14.0 | 0.00 | 0.00 | 0.00 | 22 | 1002.3 |
| 20260504212549 | 83 | 105 | 6.0 | 15.0 | 0.00 | 0.00 | 0.00 | 21 | 1002.3 |
| 20260504212050 | 84 | 76 | 7.0 | 15.0 | 0.00 | 0.00 | 0.00 | 21 | 1002.2 |
| 20260504211555 | 84 | 108 | 6.0 | 15.0 | 0.00 | 0.00 | 0.00 | 21 | 1002.2 |
| 20260504211047 | 85 | 0 | 2.0 | 9.0 | 0.00 | 0.00 | 0.00 | 21 | 1002.0 |
| 20260504210548 | 85 | 0 | 4.0 | 10.0 | 0.00 | 0.00 | 0.00 | 21 | 1002.4 |
| 20260504210052 | 85 | 0 | 3.0 | 10.0 | 0.00 | 0.00 | 0.00 | 22 | 1002.4 |
| 20260504205552 | 84 | 124 | 4.0 | 10.0 | 0.00 | 0.00 | 0.00 | 20 | 1002.5 |
| 20260504205049 | 84 | 120 | 6.0 | 10.0 | 0.00 | 0.00 | 0.00 | 19 | 1002.6 |
| 20260504204556 | 84 | 137 | 4.0 | 9.0 | 0.00 | 0.00 | 0.00 | 21 | 1002.6 |
| 20260504204048 | 83 | 46 | 5.0 | 9.0 | 0.00 | 0.00 | 0.00 | 20 | 1002.5 |
| 20260504203548 | 83 | 154 | 3.0 | 9.0 | 0.00 | 0.00 | 0.00 | 22 | 1002.7 |
| 20260504203055 | 83 | 0 | 2.0 | 18.0 | 0.00 | 0.00 | 0.00 | 21 | 1002.8 |
| 20260504202549 | 83 | 56 | 4.0 | 18.0 | 0.00 | 0.00 | 0.00 | 20 | 1002.9 |
| 20260504202049 | 83 | 81 | 4.0 | 13.0 | 0.00 | 0.00 | 0.00 | 21 | 1002.9 |
| 20260504201553 | 83 | 342 | 4.0 | 10.0 | 0.00 | 0.00 | 0.00 | 22 | 1003.0 |
| 20260504201049 | 83 | 70 | 3.0 | 12.0 | 0.00 | 0.00 | 0.00 | 22 | 1003.1 |
| 20260504200548 | 84 | 72 | 5.0 | 12.0 | 0.00 | 0.00 | 0.00 | 22 | 1003.3 |
| 20260504200057 | 85 | 63 | 6.0 | 12.0 | 0.00 | 0.00 | 0.00 | 20 | 1003.4 |
| 20260504195547 | 86 | 0 | 0.0 | 7.0 | 0.00 | 0.00 | 0.00 | 16 | 1003.6 |
| 20260504195050 | 85 | 0 | 0.0 | 8.0 | 0.00 | 0.00 | 0.00 | 15 | 1003.3 |
| 20260504194552 | 85 | 221 | 5.0 | 8.0 | 0.00 | 0.00 | 0.00 | 14 | 1003.7 |
| 20260504194048 | 85 | 130 | 4.0 | 9.0 | 0.00 | 0.00 | 0.00 | 16 | 1003.5 |
| 20260504193549 | 85 | 103 | 4.0 | 11.0 | 0.00 | 0.00 | 0.00 | 16 | 1003.6 |
| 20260504193054 | 86 | 68 | 6.0 | 11.0 | 0.00 | 0.00 | 0.00 | 15 | 1003.6 |
| 20260504192547 | 87 | 119 | 0.0 | 9.0 | 0.00 | 0.00 | 0.00 | 15 | 1003.6 |
| 20260504192048 | 87 | 0 | 3.0 | 9.0 | 0.00 | 0.00 | 0.00 | 14 | 1003.7 |
| 20260504191558 | 87 | 211 | 5.0 | 9.0 | 0.00 | 0.00 | 0.00 | 15 | 1003.7 |
| 20260504191048 | 87 | 70 | 0.0 | 8.0 | 0.00 | 0.00 | 0.00 | 16 | 1003.8 |
| 20260504190549 | 87 | 0 | 4.0 | 8.0 | 0.00 | 0.00 | 0.00 | 16 | 1003.9 |
| 20260504190108 | 86 | 148 | 0.0 | 4.0 | 0.00 | 0.00 | 0.00 | 15 | 1004.0 |
| 20260504185548 | 86 | 0 | 1.0 | 8.0 | 0.00 | 0.00 | 0.00 | 15 | 1004.1 |
| 20260504185048 | 85 | 0 | 0.0 | 8.0 | 0.00 | 0.00 | 0.00 | 14 | 1004.3 |
| 20260504184609 | 85 | 68 | 2.0 | 8.0 | 0.00 | 0.00 | 0.00 | 15 | 1004.3 |
| 20260504184048 | 85 | 0 | 0.0 | 5.0 | 0.00 | 0.00 | 0.00 | 18 | 1004.3 |
| 20260504183549 | 85 | 0 | 0.0 | 5.0 | 0.00 | 0.00 | 0.00 | 19 | 1004.4 |
| 20260504183054 | 84 | 0 | 1.0 | 5.0 | 0.00 | 0.00 | 0.00 | 20 | 1004.5 |
| 20260504182545 | 84 | 0 | 1.0 | 5.0 | 0.00 | 0.00 | 0.00 | 20 | 1004.6 |
| 20260504182044 | 84 | 0 | 0.0 | 6.0 | 0.00 | 0.00 | 0.00 | 21 | 1004.6 |
| 20260504181551 | 83 | 0 | 1.0 | 6.0 | 0.00 | 0.00 | 0.00 | 21 | 1004.8 |
| 20260504181049 | 83 | 0 | 0.0 | 0.0 | 0.00 | 0.00 | 0.00 | 19 | 1004.9 |
| 20260504180549 | 82 | 0 | 0.0 | 7.0 | 0.00 | 0.00 | 0.00 | 20 | 1005.0 |
| 20260504180053 | 82 | 0 | 0.0 | 7.0 | 0.00 | 0.00 | 0.00 | 22 | 1005.0 |
| 20260504175548 | 82 | 314 | 4.0 | 7.0 | 0.00 | 0.00 | 0.00 | 21 | 1005.0 |
| 20260504175048 | 82 | 0 | 0.0 | 10.0 | 0.00 | 0.00 | 0.00 | 22 | 1005.1 |
| 20260504174559 | 82 | 0 | 0.0 | 10.0 | 0.00 | 0.00 | 0.00 | 21 | 1005.1 |
| 20260504174047 | 82 | 346 | 3.0 | 10.0 | 0.00 | 0.00 | 0.00 | 22 | 1005.1 |
| 20260504173547 | 82 | 0 | 0.0 | 0.0 | 0.00 | 0.00 | 0.00 | 22 | 1005.2 |
| 20260504173052 | 82 | 0 | 0.0 | 0.0 | 0.00 | 0.00 | 0.00 | 21 | 1005.2 |
| 20260504172548 | 82 | 0 | 0.0 | 8.0 | 0.00 | 0.00 | 0.00 | 23 | 1005.3 |
| 20260504172045 | 81 | 0 | 2.0 | 8.0 | 0.00 | 0.00 | 0.00 | 23 | 1005.5 |
| 20260504171549 | 81 | 359 | 3.0 | 7.0 | 0.00 | 0.00 | 0.00 | 23 | 1005.5 |
| 20260504171048 | 82 | 346 | 4.0 | 7.0 | 0.00 | 0.00 | 0.00 | 23 | 1005.4 |
| 20260504170546 | 82 | 0 | 0.0 | 8.0 | 0.00 | 0.00 | 0.00 | 24 | 1005.5 |
| 20260504151048 | 69 | 274 | 4.0 | 7.0 | 0.00 | 0.00 | 0.00 | 41 | 1005.5 |
| 20260504150548 | 69 | 263 | 4.0 | 7.0 | 0.00 | 0.00 | 0.00 | 42 | 1005.5 |
| 20260504141046 | 60 | 295 | 5.0 | 8.0 | 0.00 | 0.00 | 0.00 | 52 | 1005.7 |
| 20260504140548 | 59 | 290 | 5.0 | 8.0 | 0.00 | 0.00 | 0.00 | 53 | 1005.7 |
| 20260504130548 | 50 | 276 | 5.0 | 7.0 | 0.00 | 0.00 | 0.00 | 62 | 1005.8 |
| 20260504110545 | 47 | 189 | 1.0 | 3.0 | 0.00 | 0.00 | 0.00 | 59 | 1005.7 |
| 20260504100547 | 55 | 221 | 6.0 | 9.0 | 0.00 | 0.00 | 0.00 | 50 | 1005.5 |
| 20260504081552 | 58 | 230 | 5.0 | 11.0 | 0.00 | 0.00 | 0.00 | 42 | 1006.5 |
| 20260504081051 | 58 | 225 | 6.0 | 11.0 | 0.00 | 0.00 | 0.00 | 42 | 1006.5 |
| 20260504080548 | 58 | 221 | 6.0 | 11.0 | 0.00 | 0.00 | 0.00 | 42 | 1006.6 |